Time,TemperatureF,DewpointF,PressureIn,WindDirection,WindDirectionDegrees,WindSpeedMPH,WindSpeedGustMPH,Humidity,HourlyPrecipIn,Conditions,Clouds,dailyrainin,SoftwareType,DateUTC
2013-03-26 00:00:00,36.1,27.9,29.67,West,262,2.0,4.0,72,0.00,,,0.00,Wunderground v.1.15,2013-03-26 04:00:00,
2013-03-26 00:02:00,36.0,27.8,29.67,West,259,2.0,4.0,72,0.00,,,0.00,Wunderground v.1.15,2013-03-26 04:02:00,
2013-03-26 00:04:00,36.0,27.8,29.67,West,264,3.0,4.0,72,0.00,,,0.00,Wunderground v.1.15,2013-03-26 04:04:00,
2013-03-26 00:09:00,36.0,27.8,29.67,West,278,3.0,4.0,72,0.00,,,0.00,Wunderground v.1.15,2013-03-26 04:09:00,
2013-03-26 00:14:00,35.9,28.1,29.67,West,273,2.0,3.0,73,0.00,,,0.00,Wunderground v.1.15,2013-03-26 04:14:00,
2013-03-26 00:20:00,35.9,28.1,29.67,WNW,287,3.0,4.0,73,0.00,,,0.00,Wunderground v.1.15,2013-03-26 04:20:00,
2013-03-26 00:26:00,35.9,28.1,29.67,West,273,3.0,3.0,73,0.00,,,0.00,Wunderground v.1.15,2013-03-26 04:26:00,
2013-03-26 00:31:00,35.9,28.1,29.67,West,269,3.0,5.0,73,0.00,,,0.00,Wunderground v.1.15,2013-03-26 04:31:00,
2013-03-26 00:37:00,35.8,28.0,29.67,WSW,253,3.0,3.0,73,0.00,,,0.00,Wunderground v.1.15,2013-03-26 04:37:00,
2013-03-26 00:42:00,35.8,28.0,29.67,West,266,3.0,3.0,73,0.00,,,0.00,Wunderground v.1.15,2013-03-26 04:42:00,
2013-03-26 00:47:00,35.7,27.9,29.67,West,264,3.0,4.0,73,0.00,,,0.00,Wunderground v.1.15,2013-03-26 04:47:00,
2013-03-26 00:53:00,35.7,27.9,29.67,West,259,3.0,4.0,73,0.00,,,0.00,Wunderground v.1.15,2013-03-26 04:53:00,
2013-03-26 00:58:00,35.7,28.2,29.68,West,271,3.0,5.0,74,0.00,,,0.00,Wunderground v.1.15,2013-03-26 04:58:00,
2013-03-26 01:03:00,35.6,28.1,29.68,WNW,294,3.0,3.0,74,0.00,,,0.00,Wunderground v.1.15,2013-03-26 05:03:00,
2013-03-26 01:09:00,35.6,28.1,29.68,West,274,3.0,5.0,74,0.00,,,0.00,Wunderground v.1.15,2013-03-26 05:09:00,
2013-03-26 01:14:00,35.6,28.1,29.68,West,281,4.0,4.0,74,0.00,,,0.00,Wunderground v.1.15,2013-03-26 05:14:00,
2013-03-26 01:19:00,35.6,28.1,29.68,WNW,290,3.0,4.0,74,0.00,,,0.00,Wunderground v.1.15,2013-03-26 05:19:00,
2013-03-26 01:24:00,35.6,28.1,29.68,WNW,302,2.0,4.0,74,0.00,,,0.00,Wunderground v.1.15,2013-03-26 05:24:00,
2013-03-26 01:30:00,35.5,28.0,29.68,WNW,284,3.0,5.0,74,0.00,,,0.00,Wunderground v.1.15,2013-03-26 05:30:00,
2013-03-26 01:35:00,35.5,28.0,29.68,WSW,256,3.0,5.0,74,0.00,,,0.00,Wunderground v.1.15,2013-03-26 05:35:00,
2013-03-26 01:41:00,35.3,28.2,29.68,West,281,3.0,3.0,75,0.00,,,0.00,Wunderground v.1.15,2013-03-26 05:41:00,
2013-03-26 01:46:00,35.3,28.2,29.68,WSW,250,3.0,4.0,75,0.00,,,0.00,Wunderground v.1.15,2013-03-26 05:46:00,
2013-03-26 01:52:00,35.2,28.1,29.68,West,273,3.0,3.0,75,0.00,,,0.00,Wunderground v.1.15,2013-03-26 05:52:00,
2013-03-26 01:57:00,35.2,28.1,29.68,WNW,289,3.0,5.0,75,0.00,,,0.00,Wunderground v.1.15,2013-03-26 05:57:00,
2013-03-26 02:03:00,35.1,28.3,29.68,WNW,290,4.0,7.0,76,0.00,,,0.00,Wunderground v.1.15,2013-03-26 06:03:00,
2013-03-26 02:08:00,35.1,28.3,29.68,WNW,291,5.0,7.0,76,0.00,,,0.00,Wunderground v.1.15,2013-03-26 06:08:00,
2013-03-26 02:14:00,35.1,28.3,29.69,WNW,287,5.0,6.0,76,0.00,,,0.00,Wunderground v.1.15,2013-03-26 06:14:00,
2013-03-26 02:19:00,35.1,28.3,29.69,WNW,284,6.0,8.0,76,0.00,,,0.00,Wunderground v.1.15,2013-03-26 06:19:00,
2013-03-26 02:25:00,34.9,28.1,29.68,West,281,5.0,6.0,76,0.00,,,0.00,Wunderground v.1.15,2013-03-26 06:25:00,
2013-03-26 02:31:00,34.9,28.1,29.69,West,276,4.0,5.0,76,0.00,,,0.00,Wunderground v.1.15,2013-03-26 06:31:00,
2013-03-26 02:37:00,34.8,28.0,29.69,WNW,287,5.0,6.0,76,0.00,,,0.00,Wunderground v.1.15,2013-03-26 06:37:00,
2013-03-26 02:42:00,34.8,28.3,29.69,WNW,291,5.0,5.0,77,0.00,,,0.00,Wunderground v.1.15,2013-03-26 06:42:00,
2013-03-26 02:48:00,34.7,28.2,29.69,WNW,285,5.0,5.0,77,0.00,,,0.00,Wunderground v.1.15,2013-03-26 06:48:00,
2013-03-26 02:53:00,34.5,28.0,29.69,WNW,290,4.0,6.0,77,0.00,,,0.00,Wunderground v.1.15,2013-03-26 06:53:00,
2013-03-26 02:59:00,34.5,28.0,29.69,West,278,5.0,8.0,77,0.00,,,0.00,Wunderground v.1.15,2013-03-26 06:59:00,
2013-03-26 03:04:00,34.5,28.0,29.68,WNW,302,5.0,7.0,77,0.00,,,0.00,Wunderground v.1.15,2013-03-26 07:04:00,
2013-03-26 03:10:00,34.4,27.9,29.69,WNW,288,5.0,8.0,77,0.00,,,0.00,Wunderground v.1.15,2013-03-26 07:10:00,
2013-03-26 03:15:00,34.4,27.9,29.69,WNW,284,7.0,10.0,77,0.00,,,0.00,Wunderground v.1.15,2013-03-26 07:15:00,
2013-03-26 03:21:00,34.3,28.2,29.69,WNW,283,6.0,6.0,78,0.00,,,0.00,Wunderground v.1.15,2013-03-26 07:21:00,
2013-03-26 03:26:00,34.3,28.2,29.69,WSW,251,5.0,6.0,78,0.00,,,0.00,Wunderground v.1.15,2013-03-26 07:26:00,
2013-03-26 03:32:00,34.2,28.1,29.69,WNW,298,6.0,6.0,78,0.00,,,0.00,Wunderground v.1.15,2013-03-26 07:32:00,
2013-03-26 03:37:00,34.1,28.3,29.69,West,276,6.0,7.0,79,0.00,,,0.00,Wunderground v.1.15,2013-03-26 07:37:00,
2013-03-26 03:42:00,34.1,28.3,29.69,WNW,288,6.0,8.0,79,0.00,,,0.00,Wunderground v.1.15,2013-03-26 07:42:00,
2013-03-26 03:48:00,34.0,28.2,29.69,WNW,292,7.0,8.0,79,0.00,,,0.00,Wunderground v.1.15,2013-03-26 07:48:00,
2013-03-26 03:54:00,33.9,28.1,29.69,WNW,287,6.0,6.0,79,0.00,,,0.00,Wunderground v.1.15,2013-03-26 07:54:00,
2013-03-26 04:00:00,33.8,28.3,29.70,WNW,288,5.0,7.0,80,0.00,,,0.00,Wunderground v.1.15,2013-03-26 08:00:00,
2013-03-26 04:06:00,33.7,28.2,29.70,West,264,5.0,7.0,80,0.00,,,0.00,Wunderground v.1.15,2013-03-26 08:06:00,
2013-03-26 04:12:00,33.6,28.4,29.70,West,276,4.0,6.0,81,0.00,,,0.00,Wunderground v.1.15,2013-03-26 08:12:00,
2013-03-26 04:17:00,33.6,28.4,29.70,WNW,292,4.0,6.0,81,0.00,,,0.00,Wunderground v.1.15,2013-03-26 08:17:00,
2013-03-26 04:23:00,33.5,28.3,29.70,WSW,256,5.0,6.0,81,0.00,,,0.00,Wunderground v.1.15,2013-03-26 08:23:00,
2013-03-26 04:28:00,33.5,28.3,29.70,West,276,5.0,6.0,81,0.00,,,0.00,Wunderground v.1.15,2013-03-26 08:28:00,
2013-03-26 04:34:00,33.5,28.3,29.70,WSW,255,5.0,5.0,81,0.00,,,0.00,Wunderground v.1.15,2013-03-26 08:34:00,
2013-03-26 04:39:00,33.4,28.5,29.70,WNW,292,4.0,8.0,82,0.00,,,0.00,Wunderground v.1.15,2013-03-26 08:39:00,
2013-03-26 04:45:00,33.4,28.5,29.71,WNW,288,5.0,8.0,82,0.00,,,0.00,Wunderground v.1.15,2013-03-26 08:45:00,
2013-03-26 04:50:00,33.4,28.5,29.71,NW,305,5.0,8.0,82,0.00,,,0.00,Wunderground v.1.15,2013-03-26 08:50:00,
2013-03-26 04:56:00,33.5,28.6,29.71,WNW,289,5.0,6.0,82,0.00,,,0.00,Wunderground v.1.15,2013-03-26 08:56:00,
2013-03-26 05:02:00,33.5,28.6,29.71,WNW,298,4.0,6.0,82,0.00,,,0.00,Wunderground v.1.15,2013-03-26 09:02:00,
2013-03-26 05:07:00,33.5,28.6,29.71,WNW,300,5.0,7.0,82,0.00,,,0.00,Wunderground v.1.15,2013-03-26 09:07:00,
2013-03-26 05:12:00,33.5,28.3,29.72,WNW,289,4.0,4.0,81,0.00,,,0.00,Wunderground v.1.15,2013-03-26 09:12:00,
2013-03-26 05:17:00,33.6,28.7,29.72,WNW,288,4.0,5.0,82,0.00,,,0.00,Wunderground v.1.15,2013-03-26 09:17:00,
2013-03-26 05:23:00,33.6,28.7,29.72,West,266,5.0,6.0,82,0.00,,,0.00,Wunderground v.1.15,2013-03-26 09:23:00,
2013-03-26 05:29:00,33.6,28.7,29.72,WNW,301,4.0,6.0,82,0.00,,,0.00,Wunderground v.1.15,2013-03-26 09:29:00,
2013-03-26 05:35:00,33.6,28.7,29.72,WSW,255,4.0,7.0,82,0.00,,,0.00,Wunderground v.1.15,2013-03-26 09:35:00,
2013-03-26 05:40:00,33.5,28.6,29.72,West,281,5.0,7.0,82,0.00,,,0.00,Wunderground v.1.15,2013-03-26 09:40:00,
2013-03-26 05:45:00,33.5,28.6,29.72,West,259,5.0,7.0,82,0.00,,,0.00,Wunderground v.1.15,2013-03-26 09:45:00,
2013-03-26 05:51:00,33.5,28.6,29.73,WNW,284,4.0,4.0,82,0.00,,,0.00,Wunderground v.1.15,2013-03-26 09:51:00,
2013-03-26 05:57:00,33.5,28.6,29.73,WNW,295,5.0,7.0,82,0.00,,,0.00,Wunderground v.1.15,2013-03-26 09:57:00,
2013-03-26 06:02:00,33.5,28.6,29.73,WNW,285,6.0,6.0,82,0.00,,,0.00,Wunderground v.1.15,2013-03-26 10:02:00,
2013-03-26 06:08:00,33.5,28.6,29.73,West,268,6.0,7.0,82,0.00,,,0.00,Wunderground v.1.15,2013-03-26 10:08:00,
2013-03-26 06:14:00,33.5,28.6,29.73,WSW,252,5.0,6.0,82,0.00,,,0.00,Wunderground v.1.15,2013-03-26 10:14:00,
2013-03-26 06:20:00,33.5,28.6,29.73,SW,235,4.0,6.0,82,0.00,,,0.00,Wunderground v.1.15,2013-03-26 10:20:00,
2013-03-26 06:25:00,33.5,28.9,29.74,WNW,298,4.0,8.0,83,0.00,,,0.00,Wunderground v.1.15,2013-03-26 10:25:00,
2013-03-26 06:31:00,33.6,29.0,29.74,WNW,294,5.0,5.0,83,0.00,,,0.00,Wunderground v.1.15,2013-03-26 10:31:00,
2013-03-26 06:37:00,33.6,29.0,29.74,WNW,301,4.0,5.0,83,0.00,,,0.00,Wunderground v.1.15,2013-03-26 10:37:00,
2013-03-26 06:42:00,33.7,29.4,29.74,WNW,291,4.0,5.0,84,0.00,,,0.00,Wunderground v.1.15,2013-03-26 10:42:00,
2013-03-26 06:47:00,33.8,29.5,29.74,WNW,297,5.0,9.0,84,0.00,,,0.00,Wunderground v.1.15,2013-03-26 10:47:00,
2013-03-26 06:53:00,33.8,29.8,29.74,WNW,294,5.0,8.0,85,0.00,,,0.00,Wunderground v.1.15,2013-03-26 10:53:00,
2013-03-26 06:59:00,33.8,29.8,29.74,WNW,295,5.0,9.0,85,0.00,,,0.00,Wunderground v.1.15,2013-03-26 10:59:00,
2013-03-26 07:04:00,33.8,29.8,29.74,WNW,291,5.0,5.0,85,0.00,,,0.00,Wunderground v.1.15,2013-03-26 11:04:00,
2013-03-26 07:10:00,33.8,29.8,29.75,West,270,5.0,6.0,85,0.00,,,0.00,Wunderground v.1.15,2013-03-26 11:10:00,
2013-03-26 07:16:00,33.9,30.2,29.75,WNW,284,5.0,8.0,86,0.00,,,0.00,Wunderground v.1.15,2013-03-26 11:16:00,
2013-03-26 07:22:00,33.9,30.2,29.75,West,267,5.0,7.0,86,0.00,,,0.00,Wunderground v.1.15,2013-03-26 11:22:00,
2013-03-26 07:27:00,33.9,30.2,29.75,West,280,5.0,7.0,86,0.00,,,0.00,Wunderground v.1.15,2013-03-26 11:27:00,
2013-03-26 07:33:00,33.9,30.2,29.75,West,269,4.0,5.0,86,0.00,,,0.00,Wunderground v.1.15,2013-03-26 11:33:00,
2013-03-26 07:38:00,34.0,30.3,29.75,WNW,290,4.0,5.0,86,0.00,,,0.00,Wunderground v.1.15,2013-03-26 11:38:00,
2013-03-26 07:44:00,34.0,30.3,29.76,WNW,294,4.0,8.0,86,0.00,,,0.00,Wunderground v.1.15,2013-03-26 11:44:00,
2013-03-26 07:50:00,34.0,30.3,29.76,WNW,290,5.0,8.0,86,0.00,,,0.00,Wunderground v.1.15,2013-03-26 11:50:00,
2013-03-26 07:55:00,34.0,30.3,29.76,WNW,291,5.0,5.0,86,0.00,,,0.00,Wunderground v.1.15,2013-03-26 11:55:00,
2013-03-26 08:00:00,34.0,30.3,29.76,WSW,240,4.0,7.0,86,0.00,,,0.00,Wunderground v.1.15,2013-03-26 12:00:00,
2013-03-26 08:05:00,34.2,30.7,29.77,WNW,284,6.0,9.0,87,0.00,,,0.00,Wunderground v.1.15,2013-03-26 12:05:00,
2013-03-26 08:10:00,34.3,30.8,29.77,WNW,290,8.0,11.0,87,0.00,,,0.00,Wunderground v.1.15,2013-03-26 12:10:00,
2013-03-26 08:16:00,34.4,30.9,29.77,WNW,285,8.0,13.0,87,0.00,,,0.00,Wunderground v.1.15,2013-03-26 12:16:00,
2013-03-26 08:22:00,34.4,30.9,29.77,WNW,302,8.0,11.0,87,0.00,,,0.00,Wunderground v.1.15,2013-03-26 12:22:00,
2013-03-26 08:27:00,34.5,31.0,29.78,WNW,289,7.0,11.0,87,0.00,,,0.00,Wunderground v.1.15,2013-03-26 12:27:00,
2013-03-26 08:32:00,34.4,30.9,29.78,WNW,288,7.0,8.0,87,0.00,,,0.00,Wunderground v.1.15,2013-03-26 12:32:00,
2013-03-26 08:37:00,34.4,30.9,29.78,WNW,284,7.0,8.0,87,0.00,,,0.00,Wunderground v.1.15,2013-03-26 12:37:00,
2013-03-26 08:42:00,34.4,30.9,29.78,West,266,7.0,7.0,87,0.00,,,0.00,Wunderground v.1.15,2013-03-26 12:42:00,
2013-03-26 08:48:00,34.5,31.0,29.78,WNW,291,6.0,7.0,87,0.00,,,0.00,Wunderground v.1.15,2013-03-26 12:48:00,
2013-03-26 08:53:00,34.5,31.0,29.78,WNW,289,7.0,9.0,87,0.00,,,0.00,Wunderground v.1.15,2013-03-26 12:53:00,
2013-03-26 08:58:00,34.5,31.0,29.78,WNW,293,7.0,9.0,87,0.00,,,0.00,Wunderground v.1.15,2013-03-26 12:58:00,
2013-03-26 09:03:00,34.6,31.1,29.79,NNE,15,5.0,6.0,87,0.00,,,0.00,Wunderground v.1.15,2013-03-26 13:03:00,
2013-03-26 09:09:00,34.6,31.1,29.79,WNW,285,3.0,6.0,87,0.00,,,0.00,Wunderground v.1.15,2013-03-26 13:09:00,
2013-03-26 09:14:00,34.6,31.1,29.79,WNW,285,2.0,4.0,87,0.00,,,0.00,Wunderground v.1.15,2013-03-26 13:14:00,
2013-03-26 09:20:00,34.5,31.0,29.79,West,277,3.0,6.0,87,0.00,,,0.00,Wunderground v.1.15,2013-03-26 13:20:00,
2013-03-26 09:26:00,34.5,31.0,29.79,West,273,3.0,6.0,87,0.00,,,0.00,Wunderground v.1.15,2013-03-26 13:26:00,
2013-03-26 09:31:00,34.5,31.0,29.79,West,281,4.0,7.0,87,0.00,,,0.00,Wunderground v.1.15,2013-03-26 13:31:00,
2013-03-26 09:36:00,34.5,31.3,29.79,West,278,4.0,7.0,88,0.00,,,0.00,Wunderground v.1.15,2013-03-26 13:36:00,
2013-03-26 09:42:00,34.7,31.5,29.79,SW,235,4.0,4.0,88,0.00,,,0.00,Wunderground v.1.15,2013-03-26 13:42:00,
2013-03-26 09:47:00,35.0,31.5,29.79,WNW,298,4.0,7.0,87,0.00,,,0.00,Wunderground v.1.15,2013-03-26 13:47:00,
2013-03-26 09:53:00,35.3,31.8,29.79,WNW,298,4.0,4.0,87,0.00,,,0.00,Wunderground v.1.15,2013-03-26 13:53:00,
2013-03-26 09:58:00,35.4,31.6,29.80,WNW,291,4.0,8.0,86,0.00,,,0.00,Wunderground v.1.15,2013-03-26 13:58:00,
2013-03-26 10:03:00,35.5,31.7,29.80,WNW,291,5.0,6.0,86,0.00,,,0.00,Wunderground v.1.15,2013-03-26 14:03:00,
2013-03-26 10:09:00,35.4,31.6,29.80,West,266,5.0,7.0,86,0.00,,,0.00,Wunderground v.1.15,2013-03-26 14:09:00,
2013-03-26 10:14:00,35.6,32.1,29.80,WNW,287,4.0,5.0,87,0.00,,,0.00,Wunderground v.1.15,2013-03-26 14:14:00,
2013-03-26 10:19:00,36.0,32.5,29.80,NW,307,2.0,5.0,87,0.00,,,0.00,Wunderground v.1.15,2013-03-26 14:19:00,
2013-03-26 10:25:00,36.1,32.6,29.80,WNW,300,3.0,6.0,87,0.00,,,0.00,Wunderground v.1.15,2013-03-26 14:25:00,
2013-03-26 10:32:00,36.3,32.5,29.80,WSW,257,4.0,4.0,86,0.00,,,0.00,Wunderground v.1.15,2013-03-26 14:32:00,
2013-03-26 10:37:00,36.7,32.9,29.80,WSW,248,5.0,8.0,86,0.00,,,0.00,Wunderground v.1.15,2013-03-26 14:37:00,
2013-03-26 10:43:00,37.1,33.0,29.80,SW,229,5.0,6.0,85,0.00,,,0.00,Wunderground v.1.15,2013-03-26 14:43:00,
2013-03-26 10:48:00,37.6,33.2,29.80,WSW,248,4.0,6.0,84,0.00,,,0.00,Wunderground v.1.15,2013-03-26 14:48:00,
2013-03-26 10:54:00,37.7,32.7,29.80,West,271,4.0,6.0,82,0.00,,,0.00,Wunderground v.1.15,2013-03-26 14:54:00,
2013-03-26 10:59:00,38.1,33.1,29.80,West,266,4.0,7.0,82,0.00,,,0.00,Wunderground v.1.15,2013-03-26 14:59:00,
2013-03-26 11:04:00,38.2,32.9,29.80,SW,235,4.0,6.0,81,0.00,,,0.00,Wunderground v.1.15,2013-03-26 15:04:00,
2013-03-26 11:10:00,38.5,32.9,29.80,WNW,291,5.0,9.0,80,0.00,,,0.00,Wunderground v.1.15,2013-03-26 15:10:00,
2013-03-26 11:15:00,38.6,32.3,29.81,WNW,284,7.0,10.0,78,0.00,,,0.00,Wunderground v.1.15,2013-03-26 15:15:00,
2013-03-26 11:20:00,38.6,31.7,29.81,WNW,295,8.0,14.0,76,0.00,,,0.00,Wunderground v.1.15,2013-03-26 15:20:00,
2013-03-26 11:25:00,39.1,32.5,29.81,West,281,8.0,11.0,77,0.00,,,0.00,Wunderground v.1.15,2013-03-26 15:25:00,
2013-03-26 11:31:00,39.2,31.3,29.81,WNW,291,5.0,5.0,73,0.00,,,0.00,Wunderground v.1.15,2013-03-26 15:31:00,
2013-03-26 11:36:00,39.2,30.9,29.81,WNW,286,4.0,11.0,72,0.00,,,0.00,Wunderground v.1.15,2013-03-26 15:36:00,
2013-03-26 11:41:00,39.0,31.7,29.81,NE,38,4.0,4.0,75,0.00,,,0.00,Wunderground v.1.15,2013-03-26 15:41:00,
2013-03-26 11:47:00,39.1,31.8,29.81,NW,319,4.0,6.0,75,0.00,,,0.00,Wunderground v.1.15,2013-03-26 15:47:00,
2013-03-26 11:53:00,39.1,32.2,29.81,WNW,291,6.0,10.0,76,0.00,,,0.00,Wunderground v.1.15,2013-03-26 15:53:00,
2013-03-26 11:59:00,39.3,32.4,29.81,WNW,294,6.0,10.0,76,0.00,,,0.00,Wunderground v.1.15,2013-03-26 15:59:00,
2013-03-26 12:04:00,39.8,32.5,29.82,ENE,70,5.0,6.0,75,0.00,,,0.00,Wunderground v.1.15,2013-03-26 16:04:00,
2013-03-26 12:10:00,40.0,32.4,29.81,WNW,297,4.0,9.0,74,0.00,,,0.00,Wunderground v.1.15,2013-03-26 16:10:00,
2013-03-26 12:15:00,40.0,33.0,29.81,WNW,295,5.0,6.0,76,0.00,,,0.00,Wunderground v.1.15,2013-03-26 16:15:00,
2013-03-26 12:20:00,39.9,32.3,29.81,West,278,4.0,8.0,74,0.00,,,0.00,Wunderground v.1.15,2013-03-26 16:20:00,
2013-03-26 12:25:00,39.8,32.5,29.81,WNW,291,4.0,7.0,75,0.00,,,0.00,Wunderground v.1.15,2013-03-26 16:25:00,
2013-03-26 12:31:00,40.1,31.4,29.81,West,272,6.0,11.0,71,0.00,,,0.00,Wunderground v.1.15,2013-03-26 16:31:00,
2013-03-26 12:36:00,40.3,31.3,29.81,West,263,7.0,14.0,70,0.00,,,0.00,Wunderground v.1.15,2013-03-26 16:36:00,
2013-03-26 12:41:00,40.8,32.1,29.81,WNW,293,6.0,14.0,71,0.00,,,0.00,Wunderground v.1.15,2013-03-26 16:41:00,
2013-03-26 12:47:00,41.1,30.6,29.81,WNW,288,6.0,12.0,66,0.00,,,0.00,Wunderground v.1.15,2013-03-26 16:47:00,
2013-03-26 12:52:00,41.5,31.0,29.80,WNW,302,6.0,6.0,66,0.00,,,0.00,Wunderground v.1.15,2013-03-26 16:52:00,
2013-03-26 12:58:00,41.3,31.2,29.81,NW,305,7.0,15.0,67,0.00,,,0.00,Wunderground v.1.15,2013-03-26 16:58:00,
2013-03-26 13:04:00,41.8,31.6,29.80,WNW,290,7.0,11.0,67,0.00,,,0.00,Wunderground v.1.15,2013-03-26 17:04:00,
2013-03-26 13:09:00,42.0,31.1,29.80,NW,309,8.0,15.0,65,0.00,,,0.00,Wunderground v.1.15,2013-03-26 17:09:00,
2013-03-26 13:15:00,41.5,30.2,29.80,West,266,9.0,10.0,64,0.00,,,0.00,Wunderground v.1.15,2013-03-26 17:15:00,
2013-03-26 13:20:00,41.2,30.7,29.80,West,278,8.0,14.0,66,0.00,,,0.00,Wunderground v.1.15,2013-03-26 17:20:00,
2013-03-26 13:25:00,41.2,31.1,29.81,WNW,295,7.0,13.0,67,0.00,,,0.00,Wunderground v.1.15,2013-03-26 17:25:00,
2013-03-26 13:31:00,41.6,30.3,29.81,West,277,8.0,8.0,64,0.00,,,0.00,Wunderground v.1.15,2013-03-26 17:31:00,
2013-03-26 13:36:00,41.8,31.6,29.81,NW,316,9.0,14.0,67,0.00,,,0.00,Wunderground v.1.15,2013-03-26 17:36:00,
2013-03-26 13:42:00,42.3,31.4,29.81,WNW,302,8.0,8.0,65,0.00,,,0.00,Wunderground v.1.15,2013-03-26 17:42:00,
2013-03-26 13:48:00,42.7,31.0,29.81,WNW,293,7.0,12.0,63,0.00,,,0.00,Wunderground v.1.15,2013-03-26 17:48:00,
2013-03-26 13:54:00,42.5,30.4,29.80,West,271,9.0,15.0,62,0.00,,,0.00,Wunderground v.1.15,2013-03-26 17:54:00,
2013-03-26 13:59:00,42.4,30.7,29.81,NW,310,10.0,15.0,63,0.00,,,0.00,Wunderground v.1.15,2013-03-26 17:59:00,
2013-03-26 14:04:00,42.9,31.6,29.81,WNW,284,9.0,15.0,64,0.00,,,0.00,Wunderground v.1.15,2013-03-26 18:04:00,
2013-03-26 14:09:00,42.7,29.4,29.81,NW,304,9.0,15.0,59,0.00,,,0.00,Wunderground v.1.15,2013-03-26 18:09:00,
2013-03-26 14:14:00,42.9,29.5,29.80,WNW,297,9.0,11.0,59,0.00,,,0.00,Wunderground v.1.15,2013-03-26 18:14:00,
2013-03-26 14:20:00,43.3,28.6,29.81,WNW,296,10.0,17.0,56,0.00,,,0.00,Wunderground v.1.15,2013-03-26 18:20:00,
2013-03-26 14:27:00,43.3,27.8,29.81,WNW,293,10.0,16.0,54,0.00,,,0.00,Wunderground v.1.15,2013-03-26 18:27:00,
2013-03-26 14:32:00,43.4,28.7,29.81,WNW,293,8.0,8.0,56,0.00,,,0.00,Wunderground v.1.15,2013-03-26 18:32:00,
2013-03-26 14:37:00,43.8,28.7,29.81,NNW,333,6.0,8.0,55,0.00,,,0.00,Wunderground v.1.15,2013-03-26 18:37:00,
2013-03-26 14:42:00,43.6,28.0,29.81,NNE,27,6.0,6.0,54,0.00,,,0.00,Wunderground v.1.15,2013-03-26 18:42:00,
2013-03-26 14:48:00,43.5,28.4,29.81,NW,314,5.0,10.0,55,0.00,,,0.00,Wunderground v.1.15,2013-03-26 18:48:00,
2013-03-26 14:54:00,43.4,28.3,29.81,West,281,6.0,6.0,55,0.00,,,0.00,Wunderground v.1.15,2013-03-26 18:54:00,
2013-03-26 15:00:00,43.3,27.3,29.81,North,352,6.0,6.0,53,0.00,,,0.00,Wunderground v.1.15,2013-03-26 19:00:00,
2013-03-26 15:05:00,43.1,27.1,29.81,WNW,296,7.0,12.0,53,0.00,,,0.00,Wunderground v.1.15,2013-03-26 19:05:00,
2013-03-26 15:11:00,42.7,28.1,29.82,NE,36,8.0,8.0,56,0.00,,,0.00,Wunderground v.1.15,2013-03-26 19:11:00,
2013-03-26 15:17:00,43.1,27.1,29.81,East,87,6.0,14.0,53,0.00,,,0.00,Wunderground v.1.15,2013-03-26 19:17:00,
2013-03-26 15:23:00,43.8,27.8,29.82,NE,41,6.0,6.0,53,0.00,,,0.00,Wunderground v.1.15,2013-03-26 19:23:00,
2013-03-26 15:28:00,43.8,29.1,29.82,ESE,106,6.0,11.0,56,0.00,,,0.00,Wunderground v.1.15,2013-03-26 19:28:00,
2013-03-26 15:34:00,43.1,27.6,29.82,NW,311,7.0,11.0,54,0.00,,,0.00,Wunderground v.1.15,2013-03-26 19:34:00,
2013-03-26 15:40:00,43.7,28.1,29.82,WNW,302,6.0,11.0,54,0.00,,,0.00,Wunderground v.1.15,2013-03-26 19:40:00,
2013-03-26 15:47:00,43.6,28.0,29.82,WNW,300,6.0,10.0,54,0.00,,,0.00,Wunderground v.1.15,2013-03-26 19:47:00,
2013-03-26 15:52:00,43.6,28.0,29.82,NW,326,7.0,13.0,54,0.00,,,0.00,Wunderground v.1.15,2013-03-26 19:52:00,
2013-03-26 15:58:00,43.8,27.8,29.82,NNW,345,5.0,13.0,53,0.00,,,0.00,Wunderground v.1.15,2013-03-26 19:58:00,
2013-03-26 16:03:00,44.0,27.5,29.82,WNW,288,4.0,5.0,52,0.00,,,0.00,Wunderground v.1.15,2013-03-26 20:03:00,
2013-03-26 16:08:00,44.4,28.8,29.82,NNW,332,4.0,6.0,54,0.00,,,0.00,Wunderground v.1.15,2013-03-26 20:08:00,
2013-03-26 16:13:00,43.9,28.8,29.82,ENE,65,6.0,9.0,55,0.00,,,0.00,Wunderground v.1.15,2013-03-26 20:13:00,
2013-03-26 16:19:00,43.7,27.2,29.82,WNW,288,6.0,9.0,52,0.00,,,0.00,Wunderground v.1.15,2013-03-26 20:19:00,
2013-03-26 16:24:00,43.9,28.3,29.82,North,8,5.0,9.0,54,0.00,,,0.00,Wunderground v.1.15,2013-03-26 20:24:00,
2013-03-26 16:30:00,44.1,28.5,29.82,NE,39,5.0,10.0,54,0.00,,,0.00,Wunderground v.1.15,2013-03-26 20:30:00,
2013-03-26 16:36:00,43.9,27.9,29.83,NW,315,5.0,11.0,53,0.00,,,0.00,Wunderground v.1.15,2013-03-26 20:36:00,
2013-03-26 16:42:00,43.8,28.2,29.83,ENE,67,5.0,5.0,54,0.00,,,0.00,Wunderground v.1.15,2013-03-26 20:42:00,
2013-03-26 16:48:00,43.2,28.1,29.83,NW,307,7.0,15.0,55,0.00,,,0.00,Wunderground v.1.15,2013-03-26 20:48:00,
2013-03-26 16:53:00,42.9,27.4,29.83,NW,312,8.0,10.0,54,0.00,,,0.00,Wunderground v.1.15,2013-03-26 20:53:00,
2013-03-26 16:58:00,43.1,27.6,29.83,ENE,65,6.0,11.0,54,0.00,,,0.00,Wunderground v.1.15,2013-03-26 20:58:00,
2013-03-26 17:04:00,43.3,27.8,29.83,North,360,6.0,11.0,54,0.00,,,0.00,Wunderground v.1.15,2013-03-26 21:04:00,
2013-03-26 17:09:00,42.9,27.4,29.83,WNW,294,9.0,13.0,54,0.00,,,0.00,Wunderground v.1.15,2013-03-26 21:09:00,
2013-03-26 17:14:00,42.9,27.4,29.83,NNE,20,9.0,10.0,54,0.00,,,0.00,Wunderground v.1.15,2013-03-26 21:14:00,
2013-03-26 17:20:00,43.1,26.7,29.83,WNW,295,7.0,11.0,52,0.00,,,0.00,Wunderground v.1.15,2013-03-26 21:20:00,
2013-03-26 17:26:00,43.2,27.7,29.83,WNW,300,8.0,14.0,54,0.00,,,0.00,Wunderground v.1.15,2013-03-26 21:26:00,
2013-03-26 17:31:00,43.3,26.8,29.84,North,360,7.0,7.0,52,0.00,,,0.00,Wunderground v.1.15,2013-03-26 21:31:00,
2013-03-26 17:36:00,43.3,26.4,29.84,NW,314,6.0,7.0,51,0.00,,,0.00,Wunderground v.1.15,2013-03-26 21:36:00,
2013-03-26 17:42:00,43.3,25.9,29.84,NNE,33,5.0,6.0,50,0.00,,,0.00,Wunderground v.1.15,2013-03-26 21:42:00,
2013-03-26 17:47:00,43.5,26.1,29.84,NE,39,5.0,6.0,50,0.00,,,0.00,Wunderground v.1.15,2013-03-26 21:47:00,
2013-03-26 17:52:00,42.9,25.0,29.84,WNW,291,7.0,12.0,49,0.00,,,0.00,Wunderground v.1.15,2013-03-26 21:52:00,
2013-03-26 17:58:00,42.8,24.9,29.84,ENE,60,8.0,12.0,49,0.00,,,0.00,Wunderground v.1.15,2013-03-26 21:58:00,
2013-03-26 18:03:00,43.3,25.4,29.84,WNW,302,6.0,7.0,49,0.00,,,0.00,Wunderground v.1.15,2013-03-26 22:03:00,
2013-03-26 18:08:00,43.4,25.0,29.84,NNW,336,5.0,9.0,48,0.00,,,0.00,Wunderground v.1.15,2013-03-26 22:08:00,
2013-03-26 18:14:00,43.5,24.1,29.84,WNW,294,4.0,7.0,46,0.00,,,0.00,Wunderground v.1.15,2013-03-26 22:14:00,
2013-03-26 18:19:00,43.7,25.3,29.85,NNE,27,4.0,7.0,48,0.00,,,0.00,Wunderground v.1.15,2013-03-26 22:19:00,
2013-03-26 18:24:00,43.8,25.4,29.85,WNW,302,3.0,6.0,48,0.00,,,0.00,Wunderground v.1.15,2013-03-26 22:24:00,
2013-03-26 18:29:00,43.5,24.1,29.85,NNE,12,4.0,6.0,46,0.00,,,0.00,Wunderground v.1.15,2013-03-26 22:29:00,
2013-03-26 18:35:00,43.5,23.5,29.85,WNW,302,3.0,5.0,45,0.00,,,0.00,Wunderground v.1.15,2013-03-26 22:35:00,
2013-03-26 18:40:00,43.3,23.4,29.85,NE,39,2.0,5.0,45,0.00,,,0.00,Wunderground v.1.15,2013-03-26 22:40:00,
2013-03-26 18:46:00,43.1,22.6,29.85,NNE,27,3.0,3.0,44,0.00,,,0.00,Wunderground v.1.15,2013-03-26 22:46:00,
2013-03-26 18:52:00,42.5,22.6,29.85,NW,307,3.0,3.0,45,0.00,,,0.00,Wunderground v.1.15,2013-03-26 22:52:00,
2013-03-26 18:57:00,41.6,22.8,29.86,WNW,293,3.0,5.0,47,0.00,,,0.00,Wunderground v.1.15,2013-03-26 22:57:00,
2013-03-26 19:03:00,41.0,23.3,29.86,East,79,4.0,4.0,49,0.00,,,0.00,Wunderground v.1.15,2013-03-26 23:03:00,
2013-03-26 19:08:00,40.8,23.1,29.86,NW,312,3.0,7.0,49,0.00,,,0.00,Wunderground v.1.15,2013-03-26 23:08:00,
2013-03-26 19:13:00,40.3,23.6,29.86,WNW,291,3.0,8.0,51,0.00,,,0.00,Wunderground v.1.15,2013-03-26 23:13:00,
2013-03-26 19:19:00,39.7,24.4,29.86,WNW,288,5.0,8.0,54,0.00,,,0.00,Wunderground v.1.15,2013-03-26 23:19:00,
2013-03-26 19:25:00,39.1,25.1,29.87,WNW,289,5.0,7.0,57,0.00,,,0.00,Wunderground v.1.15,2013-03-26 23:25:00,
2013-03-26 19:30:00,38.8,25.3,29.87,WNW,284,6.0,7.0,58,0.00,,,0.00,Wunderground v.1.15,2013-03-26 23:30:00,
2013-03-26 19:36:00,38.3,26.0,29.87,WNW,293,6.0,8.0,61,0.00,,,0.00,Wunderground v.1.15,2013-03-26 23:36:00,
2013-03-26 19:41:00,38.0,26.1,29.87,WNW,284,6.0,6.0,62,0.00,,,0.00,Wunderground v.1.15,2013-03-26 23:41:00,
2013-03-26 19:47:00,37.7,25.8,29.88,West,281,5.0,9.0,62,0.00,,,0.00,Wunderground v.1.15,2013-03-26 23:47:00,
2013-03-26 19:52:00,37.5,26.0,29.88,West,266,5.0,7.0,63,0.00,,,0.00,Wunderground v.1.15,2013-03-26 23:52:00,
2013-03-26 19:58:00,37.5,25.7,29.88,WNW,284,6.0,9.0,62,0.00,,,0.00,Wunderground v.1.15,2013-03-26 23:58:00,
2013-03-26 20:04:00,37.5,26.0,29.88,WNW,294,6.0,8.0,63,0.00,,,0.00,Wunderground v.1.15,2013-03-27 00:04:00,
2013-03-26 20:10:00,37.3,25.8,29.88,WNW,300,6.0,8.0,63,0.00,,,0.00,Wunderground v.1.15,2013-03-27 00:10:00,
2013-03-26 20:15:00,37.3,25.8,29.88,WNW,291,5.0,7.0,63,0.00,,,0.00,Wunderground v.1.15,2013-03-27 00:15:00,
2013-03-26 20:20:00,37.1,25.7,29.89,WNW,298,6.0,8.0,63,0.00,,,0.00,Wunderground v.1.15,2013-03-27 00:20:00,
2013-03-26 20:26:00,36.9,25.9,29.89,WNW,285,5.0,6.0,64,0.00,,,0.00,Wunderground v.1.15,2013-03-27 00:26:00,
2013-03-26 20:32:00,36.8,26.1,29.89,WNW,291,5.0,8.0,65,0.00,,,0.00,Wunderground v.1.15,2013-03-27 00:32:00,
2013-03-26 20:38:00,36.8,26.1,29.89,WNW,287,6.0,8.0,65,0.00,,,0.00,Wunderground v.1.15,2013-03-27 00:38:00,
2013-03-26 20:43:00,36.6,26.3,29.89,WNW,302,5.0,8.0,66,0.00,,,0.00,Wunderground v.1.15,2013-03-27 00:43:00,
2013-03-26 20:49:00,36.6,26.3,29.89,West,280,6.0,9.0,66,0.00,,,0.00,Wunderground v.1.15,2013-03-27 00:49:00,
2013-03-26 20:54:00,36.5,26.2,29.89,West,278,5.0,7.0,66,0.00,,,0.00,Wunderground v.1.15,2013-03-27 00:54:00,
2013-03-26 21:00:00,36.3,26.4,29.89,West,273,4.0,7.0,67,0.00,,,0.00,Wunderground v.1.15,2013-03-27 01:00:00,
2013-03-26 21:06:00,36.1,26.6,29.89,WNW,284,3.0,7.0,68,0.00,,,0.00,Wunderground v.1.15,2013-03-27 01:06:00,
2013-03-26 21:12:00,35.9,26.0,29.89,WSW,253,3.0,4.0,67,0.00,,,0.00,Wunderground v.1.15,2013-03-27 01:12:00,
2013-03-26 21:17:00,35.7,26.2,29.89,WNW,293,2.0,4.0,68,0.00,,,0.00,Wunderground v.1.15,2013-03-27 01:17:00,
2013-03-26 21:23:00,35.6,26.1,29.89,WSW,252,1.0,2.0,68,0.00,,,0.00,Wunderground v.1.15,2013-03-27 01:23:00,
2013-03-26 21:29:00,35.5,26.0,29.90,WSW,257,2.0,4.0,68,0.00,,,0.00,Wunderground v.1.15,2013-03-27 01:29:00,
2013-03-26 21:34:00,35.3,26.1,29.90,WSW,246,1.0,2.0,69,0.00,,,0.00,Wunderground v.1.15,2013-03-27 01:34:00,
2013-03-26 21:40:00,35.1,25.9,29.90,SW,234,0.0,2.0,69,0.00,,,0.00,Wunderground v.1.15,2013-03-27 01:40:00,
2013-03-26 21:45:00,35.2,26.0,29.90,West,281,1.0,5.0,69,0.00,,,0.00,Wunderground v.1.15,2013-03-27 01:45:00,
2013-03-26 21:52:00,35.2,26.0,29.90,WSW,246,2.0,2.0,69,0.00,,,0.00,Wunderground v.1.15,2013-03-27 01:52:00,
2013-03-26 21:57:00,35.0,25.9,29.90,West,281,1.0,2.0,69,0.00,,,0.00,Wunderground v.1.15,2013-03-27 01:57:00,
2013-03-26 22:02:00,34.7,25.9,29.90,WSW,256,1.0,2.0,70,0.00,,,0.00,Wunderground v.1.15,2013-03-27 02:02:00,
2013-03-26 22:08:00,34.7,25.9,29.90,WSW,255,1.0,2.0,70,0.00,,,0.00,Wunderground v.1.15,2013-03-27 02:08:00,
2013-03-26 22:13:00,34.6,26.2,29.90,SSW,194,1.0,2.0,71,0.00,,,0.00,Wunderground v.1.15,2013-03-27 02:13:00,
2013-03-26 22:19:00,34.7,26.3,29.90,West,262,1.0,2.0,71,0.00,,,0.00,Wunderground v.1.15,2013-03-27 02:19:00,
2013-03-26 22:24:00,34.9,26.1,29.90,West,276,2.0,3.0,70,0.00,,,0.00,Wunderground v.1.15,2013-03-27 02:24:00,
2013-03-26 22:30:00,35.0,26.2,29.90,WNW,291,2.0,3.0,70,0.00,,,0.00,Wunderground v.1.15,2013-03-27 02:30:00,
2013-03-26 22:36:00,35.1,26.3,29.90,West,274,1.0,3.0,70,0.00,,,0.00,Wunderground v.1.15,2013-03-27 02:36:00,
2013-03-26 22:42:00,35.1,26.3,29.90,WSW,258,2.0,3.0,70,0.00,,,0.00,Wunderground v.1.15,2013-03-27 02:42:00,
2013-03-26 22:48:00,35.2,26.4,29.90,SSW,200,2.0,3.0,70,0.00,,,0.00,Wunderground v.1.15,2013-03-27 02:48:00,
2013-03-26 22:53:00,35.2,26.4,29.90,WNW,297,1.0,1.0,70,0.00,,,0.00,Wunderground v.1.15,2013-03-27 02:53:00,
2013-03-26 22:58:00,35.1,26.3,29.90,WSW,255,1.0,2.0,70,0.00,,,0.00,Wunderground v.1.15,2013-03-27 02:58:00,
2013-03-26 23:04:00,34.9,26.1,29.90,SW,233,1.0,1.0,70,0.00,,,0.00,Wunderground v.1.15,2013-03-27 03:04:00,
2013-03-26 23:09:00,34.9,26.1,29.90,West,280,1.0,2.0,70,0.00,,,0.00,Wunderground v.1.15,2013-03-27 03:09:00,
2013-03-26 23:15:00,34.9,26.1,29.90,WSW,240,1.0,2.0,70,0.00,,,0.00,Wunderground v.1.15,2013-03-27 03:15:00,
2013-03-26 23:20:00,35.1,26.3,29.90,WSW,245,1.0,4.0,70,0.00,,,0.00,Wunderground v.1.15,2013-03-27 03:20:00,
2013-03-26 23:25:00,35.4,26.2,29.90,West,270,1.0,2.0,69,0.00,,,0.00,Wunderground v.1.15,2013-03-27 03:25:00,
2013-03-26 23:31:00,35.6,26.4,29.90,West,263,2.0,4.0,69,0.00,,,0.00,Wunderground v.1.15,2013-03-27 03:31:00,
2013-03-26 23:36:00,35.7,26.5,29.90,WSW,246,2.0,2.0,69,0.00,,,0.00,Wunderground v.1.15,2013-03-27 03:36:00,
2013-03-26 23:42:00,35.9,26.7,29.90,WSW,255,2.0,2.0,69,0.00,,,0.00,Wunderground v.1.15,2013-03-27 03:42:00,
2013-03-26 23:48:00,36.0,26.5,29.89,West,259,2.0,3.0,68,0.00,,,0.00,Wunderground v.1.15,2013-03-27 03:48:00,
2013-03-26 23:53:00,36.1,26.6,29.89,WSW,255,2.0,2.0,68,0.00,,,0.00,Wunderground v.1.15,2013-03-27 03:53:00,
2013-03-26 23:58:00,36.2,26.6,29.89,West,263,2.0,4.0,68,0.00,,,0.00,Wunderground v.1.15,2013-03-27 03:58:00,